Location: Newark
(35.2672°N, 80.7344°W)
Time: 19:07:34
(UTC+00:00)

Vanguard 2 Rocket - Pass Details

Date: 20 January 2020
Orbit: 554 x 3326 km, 32.9° (Epoch: 16 February)

Event Time Altitude Azimuth Distance (km) Brightness Sun altitude
Rises 16:35:17 0° 279° (W) 4,550 10.3 32.9°
Reaches altitude 10° 16:37:54 10° 274° (W) 3,869 10.0 33.0°
Maximum altitude 16:48:21 52° 202° (SSW) 2,765 10.6 33.6°
Drops below altitude 10° 17:05:20 10° 133° (SE) 6,053 11.9 34.2°
Sets 17:10:42 0° 129° (SE) 7,240 12.1 34.3°
